Wetbulb
56.54 55.92 56.04 55.58 55.53 56.08 53.03 50.42 44.47 54.05 56.19 46.76 48.41 45.81 46.80 45.46 47.76 49.01 46.73 47.07 46.92 45.70 43.90 41.65 42.71 43.87 44.20 45.21 45.08 43.75 44.75 41.95 37.55 39.48 42.19 43.84 43.15 42.13 41.93 34.98 33.68 35.35 32.50 31.56
56.65 55.77 55.62 55.64 54.83 53.96 54.26 47.93 48.05 54.00 53.19 41.91 45.54 49.23 47.88 47.48 46.42 47.24 46.53 45.97 47.91 47.43 45.41 42.59 45.27 44.78 44.76 45.86 45.19 42.23 42.75 40.19 34.18 35.03 38.28 40.52 39.20 42.08 42.62 40.72 38.30 33.52 29.13 31.89
56.81 55.60 55.52 55.87 54.97 55.50 53.98 48.12 43.89 48.09 48.87 48.26 44.92 45.14 46.23 46.26 47.85 45.82 46.25 45.27 46.19 45.28 43.96 46.24 44.14 43.32 44.21 45.77 46.04 45.12 43.42 41.29 38.21 33.88 37.34 40.37 37.15 39.83 40.55 38.59 32.22 33.78 34.47 35.71
57.41 56.06 55.33 55.55 54.82 55.58 53.58 47.70 44.28 48.29 42.99 44.99 45.48 46.25 46.59 44.92 44.65 45.79 45.97 44.55 44.26 43.66 41.79 43.40 42.88 43.43 42.31 44.72 44.73 44.16 42.09 38.31 38.74 38.74 39.68 39.68 39.33 39.82 39.31 37.14 37.49 33.01 36.73 37.38
57.90 56.85 55.11 55.16 54.61 55.03 50.85 45.31 46.31 47.62 44.94 46.72 44.62 44.72 44.74 44.81 45.92 45.53 44.80 42.59 45.10 43.84 42.10 41.36 41.03 43.71 42.74 42.22 42.65 41.56 41.96 37.79 38.38 36.99 39.76 39.47 37.99 39.78 39.49 39.57 39.32 38.27 38.43 36.85
55.34 57.31 55.49 55.34 53.99 53.88 50.26 50.80 50.83 47.27 44.83 44.81 43.53 43.30 44.64 45.86 46.96 45.34 45.10 43.92 43.94 42.75 42.96 44.65 44.57 44.55 44.00 43.57 41.49 40.00 39.60 38.41 36.65 34.00 39.68 39.29 35.23 39.28 40.20 40.29 40.54 38.79 34.28 37.98
55.25 56.48 56.75 55.36 54.21 53.08 51.97 52.35 50.02 45.26 41.42 44.32 44.05 45.67 46.34 44.64 45.67 44.28 43.88 44.08 43.22 44.27 47.06 46.56 45.47 44.21 43.95 43.51 42.29 43.39 39.95 39.34 38.21 34.26 36.71 27.41 36.87 40.93 41.49 41.46 41.54 41.12 40.94 41.27
55.13 54.92 56.68 56.41 55.64 53.70 52.05 52.49 50.95 46.00 41.18 44.41 45.32 46.17 45.39 45.46 44.20 43.66 43.68 42.87 45.02 46.88 45.46 41.37 38.82 38.71 39.64 40.10 41.12 41.10 41.53 40.55 35.36 32.60 31.64 36.82 36.30 38.53 38.28 36.43 37.09 41.95 40.15 41.67
55.00 54.49 55.13 55.75 55.79 54.57 52.85 53.00 53.56 49.98 42.80 42.14 47.32 44.60 45.99 42.93 42.14 41.11 41.78 43.93 46.08 45.78 42.93 41.33 34.61 34.98 39.88 36.49 37.37 41.11 41.36 40.34 36.56 33.22 29.95 26.47 36.11 39.50 42.31 40.96 30.11 41.19 41.78 41.26
54.39 54.02 53.76 55.40 55.29 54.89 53.15 52.76 53.74 50.48 44.28 46.70 46.91 43.69 42.68 46.72 44.84 42.19 41.40 41.86 42.05 43.82 40.74 38.10 38.44 38.35 42.29 36.49 36.66 33.89 35.32 34.94 31.77 32.63 30.86 34.92 39.27 40.69 42.17 28.80 33.34 41.46 41.69 41.39
53.95 54.42 53.19 53.49 52.80 54.64 53.14 52.25 54.11 50.94 46.30 47.22 48.59 46.70 43.89 45.01 44.89 42.05 41.88 40.84 41.29 39.79 37.45 39.18 40.69 38.06 40.29 38.53 39.34 37.10 35.18 33.68 31.37 32.48 29.28 26.97 41.44 39.64 34.86 39.70 40.77 42.38 40.69 41.60
53.60 54.18 53.64 53.92 53.32 51.26 53.12 49.37 53.67 53.95 48.29 47.34 47.69 47.63 47.68 46.17 46.17 43.09 43.41 43.35 43.01 43.77 40.76 42.16 44.02 39.47 39.93 39.52 34.59 39.42 33.17 38.29 35.81 36.89 36.09 41.26 41.87 40.99 42.47 43.44 42.35 40.61 41.32 41.45
53.23 53.65 53.75 53.13 52.22 50.79 52.32 50.44 52.38 50.25 46.29 45.78 46.22 45.78 47.66 47.99 47.12 47.39 42.65 44.95 47.27 45.99 46.65 45.91 44.39 40.12 42.02 36.04 36.83 37.78 38.63 40.86 36.06 36.28 39.38 40.02 41.93 42.56 43.42 42.66 41.79 43.16 43.24 41.69
52.96 53.47 53.57 53.00 51.14 50.45 50.12 50.11 51.72 49.89 46.80 41.68 44.14 48.23 45.49 48.46 47.53 47.01 46.56 45.61 47.53 47.63 46.92 45.32 44.56 42.29 42.37 38.60 39.09 37.49 38.56 39.21 37.26 36.65 39.25 40.05 41.23 42.42 43.28 43.07 42.92 42.51 42.54 41.35
52.65 53.01 53.34 53.02 52.33 50.40 49.47 49.27 51.41 51.99 45.93 41.15 43.33 45.31 46.29 46.83 46.82 46.13 46.20 45.62 45.75 45.34 43.40 42.77 43.27 42.48 40.75 39.89 38.45 36.71 40.42 38.60 35.20 34.87 40.44 40.56 40.01 43.28 44.19 41.94 41.51 41.42 40.08 38.99
52.23 52.65 52.89 52.57 52.09 51.56 48.38 44.60 50.46 51.56 50.37 42.92 41.02 43.43 43.47 45.07 46.33 45.61 45.30 46.34 45.81 45.89 44.69 43.46 42.55 43.16 41.81 37.49 35.50 41.55 42.34 43.13 42.62 39.89 41.88 41.61 41.98 43.46 43.63 42.05 41.82 41.66 40.37 39.99
51.98 52.09 52.31 51.91 51.69 49.44 45.98 43.28 45.28 48.32 50.09 42.74 40.55 38.82 42.25 44.67 45.48 45.10 44.41 45.34 44.78 44.87 43.54 41.65 42.42 40.69 40.30 39.75 36.47 41.18 42.64 43.05 43.24 42.98 41.51 39.01 40.53 39.58 42.46 42.77 42.44 43.26 41.00 40.20
51.64 51.55 51.50 50.96 50.69 49.29 45.63 49.35 48.88 47.87 45.99 45.51 38.27 38.31 37.58 42.72 40.75 40.17 43.95 42.83 43.67 42.21 42.70 40.73 39.91 39.42 38.77 33.84 40.68 42.72 42.56 42.45 42.15 41.78 40.71 40.51 41.88 41.77 41.14 41.67 40.39 38.76 38.20 38.94
51.11 50.75 50.33 48.93 46.68 43.94 45.88 50.34 49.96 47.69 43.98 39.19 38.04 34.04 35.50 41.28 41.52 41.20 41.24 42.70 39.44 40.52 38.95 39.49 39.42 37.73 33.03 38.34 39.65 40.90 41.11 40.18 40.85 41.77 41.10 40.17 39.80 39.57 39.64 39.46 38.69 37.35 37.76 38.53
49.84 48.38 44.18 39.15 43.33 48.75 46.46 42.58 39.85 40.10 41.61 41.40 39.78 41.97 35.39 40.58 39.83 39.52 39.29 40.54 39.60 34.70 37.32 38.06 34.88 35.64 41.19 42.55 42.50 42.28 42.07 41.97 41.88 38.70 37.02 38.42 38.15 38.38 38.42 38.06 38.73 38.35 38.18 38.28
45.57 40.09 37.66 44.34 48.18 43.22 40.81 33.53 35.26 36.75 36.57 40.81 40.65 41.20 35.34 41.32 38.22 37.08 39.98 37.24 36.14 32.45 34.10 33.90 33.55 32.96 38.17 39.91 40.08 41.91 42.50 42.00 41.44 41.09 40.64 40.61 40.28 39.34 38.90 38.93 38.57 38.44 38.26 38.13
43.36 42.87 45.58 43.58 38.90 34.43 32.85 32.60 36.17 36.45 34.37 39.45 37.89 38.93 39.85 39.25 42.16 37.80 35.59 35.12 34.27 30.70 35.82 31.67 30.04 36.55 37.71 38.43 40.25 40.95 41.57 41.30 41.10 41.74 41.05 40.68 41.06 40.29 39.52 38.62 38.11 38.62 38.58 38.78
44.73 40.39 34.85 33.28 33.06 29.78 29.70 29.32 32.82 34.87 38.06 39.42 38.30 35.85 37.57 37.74 39.98 37.23 36.04 31.92 31.07 35.06 30.33 29.73 33.36 37.43 37.78 38.31 39.96 40.32 41.26 40.95 40.48 40.24 40.78 40.56 39.85 40.57 40.04 38.98 38.67 38.67 38.47 39.09
35.44 31.78 29.35 30.36 29.59 30.52 33.35 34.60 36.61 39.21 38.98 38.72 39.58 36.31 37.55 37.47 36.41 36.70 32.35 33.01 32.75 27.88 27.48 29.63 36.07 37.03 37.36 38.47 40.27 40.23 39.60 39.69 39.50 39.41 39.59 39.39 39.52 38.89 38.94 38.97 38.66 38.21 37.73 38.37
32.72 32.34 30.07 30.79 35.62 38.37 38.52 40.86 41.00 39.74 41.02 40.46 37.91 38.21 38.17 35.15 32.32 35.67 31.07 27.38 26.80 29.61 29.69 35.05 38.34 38.07 37.74 37.93 39.44 39.75 39.31 39.34 38.98 39.09 38.86 38.83 38.02 37.40 37.64 38.34 38.34 38.15 38.23 38.09
33.66 33.29 33.80 37.21 35.00 36.46 37.92 39.56 38.12 41.26 41.00 41.03 39.94 36.11 34.27 32.08 33.02 29.15 28.63 28.04 27.62 31.71 35.66 38.97 38.91 37.63 38.05 38.52 39.89 39.96 39.24 38.94 38.89 37.87 37.94 38.20 37.66 37.37 37.17 37.66 37.78 37.71 37.82 37.68
31.63 32.32 37.26 38.31 38.28 37.79 37.39 39.60 38.83 42.78 39.84 35.31 38.48 29.91 30.45 35.21 30.70 29.26 32.81 31.43 35.83 38.83 38.03 39.38 38.83 38.05 38.74 39.67 39.57 39.43 38.99 38.20 37.54 37.14 37.42 37.24 37.83 37.20 36.49 36.20 37.19 37.67 38.16 37.31
MSLP
1018.96 1018.91 1018.62 1018.29 1018.02 1017.70 1017.36 1017.02 1015.35 1013.69 1013.66 1013.60 1011.64 1009.97 1009.48 1009.27 1008.93 1009.23 1009.39 1009.29 1008.94 1008.85 1009.30 1009.22 1009.19 1008.87 1009.60 1010.08 1009.80 1009.00 1008.91 1008.59 1008.61 1009.01 1008.97 1008.84 1008.60 1008.41 1008.47 1009.12 1009.47 1009.68 1010.18 1011.08
1018.95 1018.77 1018.51 1018.31 1018.01 1017.82 1017.04 1016.19 1014.75 1013.62 1013.48 1012.55 1010.48 1009.06 1008.66 1008.87 1008.85 1008.95 1008.90 1008.65 1008.78 1008.69 1008.76 1008.68 1008.64 1009.41 1010.60 1010.60 1010.29 1010.29 1009.94 1008.81 1008.90 1009.32 1009.50 1009.19 1008.94 1008.66 1008.77 1009.13 1009.81 1010.26 1010.74 1011.18
1018.74 1018.68 1018.56 1018.26 1018.11 1017.79 1017.39 1016.45 1014.40 1013.33 1013.08 1011.97 1011.12 1009.80 1008.74 1008.40 1008.83 1008.99 1009.02 1008.87 1008.77 1008.62 1008.44 1008.67 1008.90 1009.67 1010.57 1010.84 1010.66 1010.59 1010.28 1009.46 1009.01 1009.23 1009.01 1008.59 1008.87 1008.82 1009.20 1009.66 1010.12 1010.16 1010.37 1010.70
1018.41 1018.49 1018.47 1018.34 1018.13 1017.81 1017.64 1016.28 1014.75 1013.36 1012.40 1011.29 1010.54 1009.85 1009.16 1008.60 1008.60 1008.91 1008.97 1008.56 1008.72 1008.86 1008.65 1008.65 1009.03 1009.83 1010.59 1010.84 1010.87 1010.56 1010.45 1010.00 1009.44 1009.36 1009.34 1009.17 1009.08 1009.15 1009.45 1009.77 1009.88 1010.26 1010.22 1010.62
1017.92 1018.08 1018.28 1018.29 1018.29 1018.19 1017.48 1015.99 1014.63 1014.37 1013.48 1011.64 1010.60 1009.51 1008.83 1008.64 1008.39 1008.55 1008.54 1008.95 1008.72 1008.98 1009.16 1009.55 1009.57 1009.65 1010.14 1010.27 1011.01 1010.76 1010.60 1010.42 1010.05 1009.70 1009.79 1009.79 1009.68 1009.54 1009.54 1009.61 1009.89 1010.11 1010.41 1010.80
1017.94 1017.84 1018.03 1018.17 1018.29 1018.47 1017.20 1015.92 1015.41 1015.13 1013.75 1012.37 1010.87 1009.85 1008.88 1008.48 1008.44 1008.96 1009.20 1009.45 1009.32 1009.55 1009.87 1009.84 1009.89 1009.84 1010.11 1010.17 1010.60 1010.79 1010.80 1010.71 1010.66 1010.38 1010.37 1010.12 1009.98 1009.60 1009.49 1009.58 1009.70 1010.17 1010.74 1011.21
1017.72 1017.56 1017.67 1017.97 1018.23 1018.36 1017.72 1016.26 1016.08 1015.28 1013.72 1012.86 1011.25 1009.80 1009.22 1009.19 1008.99 1009.34 1009.88 1010.07 1010.01 1010.67 1010.39 1010.28 1010.19 1010.29 1010.49 1010.71 1010.94 1011.02 1011.10 1011.15 1011.33 1011.34 1010.96 1010.85 1010.48 1010.15 1009.84 1009.43 1009.90 1010.20 1010.96 1011.49
1017.37 1017.39 1017.29 1017.47 1017.84 1018.12 1018.07 1017.29 1016.66 1015.75 1014.35 1013.26 1011.67 1010.27 1009.47 1009.61 1009.92 1010.15 1010.63 1011.22 1011.19 1010.92 1010.88 1010.71 1010.72 1010.82 1010.97 1011.26 1011.55 1011.55 1011.56 1011.47 1011.89 1012.15 1011.83 1011.12 1011.08 1010.71 1010.50 1010.27 1010.40 1010.41 1010.99 1011.60
1016.91 1017.11 1017.08 1017.14 1017.42 1017.73 1018.00 1017.26 1016.89 1016.28 1015.49 1013.25 1012.16 1011.51 1010.06 1009.84 1010.12 1010.85 1011.52 1011.92 1011.71 1011.66 1011.34 1010.83 1010.52 1010.28 1010.03 1011.04 1011.77 1012.00 1011.98 1011.96 1012.32 1012.71 1012.80 1012.14 1011.10 1011.05 1011.02 1011.06 1011.22 1010.89 1011.06 1011.80
1016.42 1016.64 1016.76 1016.85 1017.00 1017.28 1017.65 1016.88 1016.47 1016.18 1015.36 1013.98 1013.16 1012.36 1011.68 1010.43 1010.28 1010.56 1011.49 1012.05 1012.12 1012.02 1011.24 1010.88 1010.70 1010.04 1009.93 1010.30 1010.77 1011.64 1012.00 1012.35 1012.72 1012.90 1012.89 1011.97 1011.27 1011.38 1011.52 1011.88 1011.92 1011.34 1011.60 1012.16
1015.89 1016.13 1016.35 1016.63 1016.87 1016.91 1017.33 1016.45 1016.06 1016.00 1014.81 1014.20 1013.71 1013.29 1012.88 1012.04 1011.45 1011.24 1011.61 1012.00 1011.71 1011.77 1011.31 1010.63 1010.34 1010.37 1010.20 1010.16 1010.33 1010.90 1011.46 1012.07 1012.50 1012.67 1012.63 1012.26 1011.53 1012.03 1012.09 1011.67 1011.62 1011.99 1012.37 1012.83
1015.28 1015.61 1015.82 1016.07 1016.42 1016.47 1016.93 1016.54 1015.60 1015.37 1015.18 1014.15 1014.09 1013.63 1013.44 1013.49 1013.21 1012.78 1011.63 1011.19 1010.64 1010.49 1010.54 1010.06 1010.31 1010.51 1010.60 1010.47 1010.59 1010.88 1011.21 1011.17 1011.49 1011.67 1011.65 1011.37 1011.28 1011.39 1011.58 1011.72 1012.07 1012.56 1012.98 1013.55
1014.66 1015.02 1015.35 1015.69 1016.00 1016.16 1016.53 1016.55 1015.88 1015.39 1015.12 1014.76 1014.01 1012.59 1012.58 1013.13 1013.21 1013.10 1012.55 1011.08 1010.49 1010.11 1010.06 1009.84 1010.46 1010.60 1010.36 1010.69 1010.64 1010.50 1010.81 1010.91 1011.31 1011.35 1010.60 1010.87 1011.13 1011.32 1011.78 1012.21 1012.55 1012.89 1013.32 1013.99
1014.05 1014.42 1014.72 1015.16 1015.51 1015.87 1016.07 1016.41 1015.93 1015.81 1014.70 1013.67 1012.20 1011.88 1012.35 1012.52 1012.78 1012.71 1012.37 1012.00 1011.12 1010.58 1010.34 1010.37 1010.99 1011.21 1010.82 1010.93 1010.90 1010.69 1010.74 1010.76 1010.76 1010.67 1010.39 1010.61 1010.85 1011.00 1011.51 1012.26 1012.94 1013.40 1013.97 1014.59
1013.44 1013.83 1014.16 1014.54 1014.97 1015.51 1015.80 1016.21 1015.43 1015.32 1015.00 1013.30 1011.94 1011.83 1011.97 1012.26 1012.34 1012.18 1012.03 1011.86 1011.42 1010.93 1010.83 1010.80 1011.37 1011.31 1011.50 1011.65 1011.55 1010.54 1009.90 1009.61 1009.90 1010.10 1009.75 1009.94 1010.56 1010.81 1011.51 1012.39 1013.16 1013.86 1014.44 1015.00
1012.96 1013.28 1013.60 1013.94 1014.46 1015.14 1015.90 1015.23 1014.20 1014.12 1014.23 1014.04 1012.43 1012.27 1011.91 1012.00 1011.80 1011.81 1011.63 1011.39 1011.37 1010.94 1010.63 1010.82 1011.48 1011.84 1012.15 1012.24 1011.61 1009.15 1008.54 1008.66 1008.89 1009.62 1009.80 1010.41 1010.99 1011.30 1011.73 1012.57 1013.41 1014.09 1014.66 1015.14
1012.49 1012.79 1013.11 1013.32 1013.87 1014.52 1014.37 1014.47 1014.06 1013.84 1013.67 1013.43 1012.35 1012.07 1012.12 1011.86 1011.72 1011.85 1011.73 1011.76 1011.58 1011.45 1011.10 1011.52 1011.90 1012.44 1012.62 1012.43 1011.13 1008.98 1008.45 1008.43 1008.84 1009.56 1010.36 1011.21 1011.51 1011.96 1012.33 1012.94 1013.60 1014.21 1014.72 1015.29
1011.99 1012.34 1012.60 1012.84 1013.46 1014.01 1013.79 1013.24 1013.76 1013.59 1012.86 1012.39 1012.07 1011.94 1012.24 1012.19 1011.70 1011.76 1011.61 1011.70 1011.81 1011.84 1011.69 1012.26 1012.27 1012.77 1012.68 1011.82 1009.76 1008.97 1008.57 1008.55 1009.11 1009.95 1010.66 1011.19 1011.49 1012.20 1012.84 1013.35 1014.01 1014.69 1015.18 1015.52
1011.52 1011.95 1012.31 1012.94 1013.26 1013.03 1012.71 1012.94 1013.29 1013.42 1013.11 1012.02 1011.92 1011.39 1011.38 1011.58 1011.11 1011.49 1011.71 1011.53 1012.12 1012.51 1012.35 1012.37 1012.60 1012.30 1011.62 1009.59 1009.11 1008.69 1008.66 1008.98 1009.50 1010.23 1010.99 1011.55 1012.14 1012.74 1013.29 1013.84 1014.37 1014.85 1015.24 1015.59
1011.27 1011.97 1012.49 1012.61 1012.47 1012.49 1012.81 1013.68 1013.62 1013.72 1012.05 1011.14 1010.34 1009.94 1010.75 1010.85 1011.12 1011.25 1011.77 1011.91 1012.03 1012.77 1012.60 1012.80 1012.66 1011.05 1009.26 1008.56 1008.35 1008.36 1008.64 1009.10 1009.66 1010.56 1011.42 1011.85 1012.41 1012.99 1013.53 1013.96 1014.48 1014.96 1015.33 1015.66
1011.26 1011.76 1012.26 1012.50 1012.41 1012.46 1013.05 1012.98 1012.13 1011.88 1010.78 1009.17 1008.80 1008.91 1009.72 1010.27 1010.33 1010.78 1011.13 1011.79 1012.14 1012.51 1012.54 1012.71 1011.90 1010.15 1008.37 1008.05 1008.13 1008.42 1008.88 1009.45 1010.01 1010.65 1011.22 1011.75 1012.31 1012.91 1013.53 1014.14 1014.49 1014.98 1015.45 1015.94
1010.41 1011.21 1011.85 1012.81 1012.34 1012.19 1011.90 1011.19 1010.05 1009.04 1008.19 1006.91 1007.15 1008.04 1008.97 1009.87 1009.68 1010.44 1011.51 1011.59 1012.07 1012.25 1012.30 1012.45 1010.92 1008.68 1008.27 1008.36 1008.54 1008.90 1009.32 1009.86 1010.38 1010.75 1011.48 1011.94 1012.47 1013.01 1013.56 1014.18 1014.90 1015.39 1015.84 1016.32
1010.76 1011.31 1011.88 1012.00 1011.30 1010.34 1009.42 1008.08 1006.95 1005.60 1004.84 1005.27 1005.96 1007.71 1008.89 1009.81 1009.77 1010.47 1011.09 1011.49 1011.93 1011.90 1012.09 1010.93 1008.88 1008.22 1008.40 1008.70 1008.98 1009.36 1009.81 1010.35 1010.94 1011.49 1011.98 1012.50 1012.99 1013.51 1014.14 1014.79 1015.30 1015.89 1016.33 1016.57
1010.49 1010.78 1010.65 1009.73 1008.49 1007.05 1005.62 1004.69 1003.84 1003.79 1004.54 1005.34 1005.67 1007.20 1008.18 1009.03 1009.68 1010.21 1011.00 1011.48 1011.56 1011.76 1011.10 1008.96 1007.30 1007.54 1008.22 1008.76 1009.25 1009.63 1010.23 1010.95 1011.60 1012.13 1012.57 1013.18 1013.69 1014.21 1014.72 1015.16 1015.67 1016.17 1016.56 1016.92
1009.56 1009.34 1008.06 1007.15 1005.54 1004.42 1003.48 1002.62 1002.31 1002.74 1003.70 1004.67 1005.68 1006.98 1008.01 1009.13 1009.84 1009.97 1010.94 1011.52 1010.86 1009.80 1008.06 1006.59 1006.15 1006.96 1007.87 1008.58 1009.21 1009.80 1010.49 1011.25 1011.97 1012.49 1013.06 1013.50 1014.08 1014.67 1015.10 1015.53 1015.96 1016.33 1016.72 1017.15
1008.32 1007.62 1006.30 1004.88 1004.38 1003.09 1002.20 1001.51 1001.93 1002.28 1003.14 1004.25 1005.01 1006.39 1007.89 1008.39 1008.61 1009.10 1008.89 1008.99 1007.99 1006.39 1005.65 1005.38 1005.96 1006.91 1007.71 1008.45 1009.05 1009.77 1010.56 1011.31 1012.05 1012.76 1013.32 1013.89 1014.48 1015.02 1015.56 1015.88 1016.20 1016.67 1017.13 1017.47
1006.84 1005.71 1004.62 1003.67 1002.77 1001.81 1001.55 1001.00 1001.16 1002.06 1002.49 1003.19 1004.48 1005.73 1006.44 1007.00 1007.36 1007.32 1006.63 1005.69 1004.38 1004.08 1004.68 1005.12 1005.82 1006.68 1007.56 1008.33 1009.05 1009.78 1010.59 1011.50 1012.30 1013.05 1013.76 1014.42 1014.97 1015.47 1015.94 1016.37 1016.85 1017.11 1017.36 1017.72
Wind_Speed
4 6 9 9 6 3 4 1 5 4 5 5 6 7 2 2 4 4 5 4 7 3 4 4 4 2 4 5 6 4 2 4 4 4 3 4 4 3 7 3 2 2 2 1
5 4 5 7 4 2 1 3 7 5 5 6 9 12 4 2 2 3 2 3 1 3 3 4 2 4 1 3 4 4 6 4 4 3 1 1 3 3 4 4 3 3 1 2
4 3 4 5 4 3 2 3 4 4 6 8 16 14 13 10 1 3 3 3 1 4 4 3 1 2 2 2 4 5 3 4 3 2 4 2 4 4 4 4 2 3 2 6
6 4 2 3 3 5 4 3 5 6 5 7 13 13 11 14 7 4 3 3 4 5 4 2 3 5 1 1 2 2 3 3 5 6 3 4 4 5 7 7 6 3 3 4
5 4 4 1 1 5 4 3 3 6 11 15 14 11 11 14 14 2 3 4 3 3 1 5 6 5 4 3 2 2 2 2 2 3 4 1 3 5 6 6 6 6 6 5
6 6 5 4 4 6 4 3 8 6 7 12 11 10 13 5 6 3 2 6 4 4 3 4 3 5 5 4 4 4 3 1 1 2 1 4 6 2 8 5 4 1 5 3
5 7 7 7 7 9 7 5 4 4 9 10 14 13 8 8 6 6 3 4 4 2 3 3 4 5 5 6 6 5 2 2 1 2 3 3 2 4 6 2 3 4 6 5
4 6 5 9 10 9 5 6 4 3 8 11 18 18 8 3 2 2 1 4 4 2 1 2 3 2 3 4 4 4 4 2 2 1 3 2 3 3 1 2 2 6 4 7
7 3 4 5 9 10 5 6 6 3 5 9 11 18 10 4 5 3 2 1 1 1 3 3 2 5 3 5 5 2 4 3 1 2 1 5 2 4 1 3 2 2 4 6
8 7 6 8 6 11 6 5 9 5 6 11 11 7 6 3 6 3 5 4 4 2 3 3 2 2 3 3 5 4 2 1 4 4 3 6 5 7 2 2 6 4 3 4
9 9 7 3 3 4 7 5 8 8 5 14 11 6 5 8 4 2 5 4 4 3 3 2 3 2 1 1 3 4 5 5 3 2 2 7 8 4 4 4 3 5 2 5
11 10 9 11 9 3 3 4 6 7 4 4 1 6 6 5 4 4 4 4 3 4 3 1 3 1 1 1 2 3 2 2 2 7 5 4 8 2 3 3 4 3 5 5
11 10 11 12 10 7 2 4 5 2 3 8 13 13 9 6 7 2 2 3 5 3 3 1 0 2 3 3 5 5 3 4 1 4 3 7 7 5 7 3 3 6 7 7
13 12 13 13 12 10 2 5 3 2 4 5 6 5 4 3 5 8 6 4 5 3 2 1 2 2 2 1 1 1 2 6 6 5 6 4 5 7 9 8 5 7 7 6
13 12 13 13 13 11 3 7 4 5 8 4 0 1 6 4 7 8 7 6 6 2 2 1 3 2 1 1 2 4 6 7 5 5 1 5 3 7 7 9 7 7 6 6
12 11 12 13 11 11 3 5 8 10 8 4 3 1 4 4 6 7 7 4 3 3 2 1 3 2 0 3 4 5 8 7 3 1 6 9 6 6 6 8 8 7 7 7
13 11 12 11 13 6 4 3 2 8 7 4 3 2 2 2 3 1 2 2 2 3 2 1 3 2 0 2 5 5 8 6 8 9 8 6 5 4 6 8 8 8 6 6
13 12 10 9 11 4 5 4 6 8 4 3 3 2 3 6 5 3 1 3 3 1 1 1 2 2 1 6 7 7 5 7 8 8 3 4 8 8 7 7 8 6 5 4
12 10 7 3 3 4 2 8 9 5 3 3 3 6 4 5 1 3 2 2 2 1 2 2 1 3 7 8 7 6 8 6 7 8 7 5 8 8 8 7 8 6 6 5
11 5 3 3 3 16 11 3 3 2 5 5 4 4 3 3 3 2 4 1 3 3 2 4 2 6 8 8 6 4 7 7 8 9 8 8 8 8 7 6 7 5 3 5
4 3 3 1 9 2 3 4 5 6 4 5 5 4 6 2 4 4 2 4 4 3 3 5 4 5 5 6 2 7 7 7 8 7 7 7 9 8 7 6 6 7 5 3
8 6 4 2 2 3 5 5 5 8 7 8 10 5 5 3 3 4 2 4 2 3 6 2 5 4 6 6 7 7 8 8 8 7 8 7 8 7 7 7 7 6 6 5
3 3 3 4 4 7 7 9 6 5 3 8 8 6 4 3 3 4 3 4 4 5 3 6 7 5 6 6 7 7 8 10 8 8 8 9 8 9 8 7 6 7 5 5
4 6 8 7 6 8 7 8 7 5 8 10 11 5 4 3 4 4 6 2 4 3 4 8 4 9 10 7 8 8 10 10 9 9 8 9 8 7 7 7 6 5 5 5
5 5 7 10 7 7 10 8 10 6 11 12 6 5 4 2 3 2 6 2 5 7 7 5 7 13 12 11 11 11 10 8 8 8 7 8 8 7 6 7 6 6 4 5
3 6 5 6 8 8 8 9 7 7 12 7 3 6 5 4 5 5 8 9 9 6 5 6 11 13 12 12 12 11 10 9 9 7 7 7 7 7 6 6 5 6 4 4
6 5 7 6 8 8 7 4 8 10 12 7 5 7 9 4 4 5 7 8 5 7 7 7 12 13 13 12 13 12 12 11 9 8 7 7 7 6 5 6 5 5 5 4
Wind_Direction
305 339 356 3 357 114 133 275 275 139 190 238 223 251 22 282 316 153 255 253 275 115 132 267 260 49 60 351 324 305 87 304 131 86 53 10 333 295 190 170 208 219 126 194
287 323 0 1 6 316 359 251 269 168 211 266 257 275 198 214 261 253 294 277 265 14 263 265 26 78 30 7 343 11 349 274 121 154 150 62 259 202 299 34 68 274 30 174
275 278 354 5 351 157 239 293 294 148 205 253 286 294 307 297 135 261 266 286 269 284 242 164 353 130 89 339 10 339 326 311 354 50 56 78 179 193 192 197 177 242 216 146
237 239 308 11 342 198 248 201 258 317 284 243 241 249 272 290 283 216 218 231 234 298 288 197 212 85 162 212 80 286 356 313 13 84 40 351 8 160 187 222 244 261 270 41
305 215 224 113 2 215 250 268 302 356 308 291 294 299 240 268 283 232 225 233 337 326 306 20 359 155 208 111 135 272 118 334 326 241 134 256 269 249 249 226 245 286 309 317
333 283 216 189 193 224 242 235 274 263 290 304 291 266 282 243 304 81 329 329 300 225 72 30 17 43 31 68 150 198 186 232 276 108 191 288 268 265 216 212 211 325 251 109
311 323 218 201 207 216 309 310 351 274 266 272 279 288 293 317 317 298 64 311 303 88 201 168 87 78 87 71 37 20 253 260 31 269 341 252 135 35 343 164 131 168 122 141
274 307 265 205 202 217 269 283 275 300 281 273 288 296 240 267 323 54 97 48 341 202 242 207 157 182 187 100 14 354 334 293 153 128 232 318 156 199 149 168 179 192 218 131
257 262 293 256 220 204 244 265 257 247 292 248 309 319 305 241 206 141 104 208 73 311 245 242 232 206 190 157 156 241 284 323 75 118 122 229 122 134 95 62 269 339 153 148
261 217 263 262 262 203 213 270 223 234 248 269 293 309 322 287 299 84 116 165 197 299 238 234 218 262 13 182 195 158 171 160 195 218 203 286 115 132 95 126 223 159 142 149
252 238 216 217 79 223 202 255 234 223 228 266 301 311 311 317 292 215 109 136 223 171 254 217 206 239 135 327 73 166 165 149 201 226 149 268 127 99 198 178 53 107 55 77
249 239 226 237 237 154 212 249 237 231 225 299 256 275 259 235 304 311 181 323 150 201 211 205 53 133 102 245 200 13 234 198 186 157 216 147 181 86 65 63 133 119 121 99
241 228 228 228 237 260 198 269 294 218 246 273 257 245 199 204 227 301 262 210 347 343 111 352 129 241 138 180 231 149 242 116 194 48 201 177 192 203 140 138 73 108 117 128
237 231 233 219 204 225 254 252 236 266 287 226 233 95 165 141 227 231 235 296 283 317 302 148 134 204 46 311 18 345 104 124 199 242 244 145 229 205 168 144 115 113 112 125
234 235 233 227 192 206 203 269 248 241 264 317 129 160 146 204 224 226 215 240 250 225 213 179 212 99 117 61 4 249 175 191 170 219 211 163 69 163 135 127 144 140 134 126
234 230 235 226 203 183 147 239 202 212 232 266 261 98 181 210 216 210 207 214 256 266 247 97 71 39 313 140 246 257 204 196 210 309 86 90 86 95 111 128 145 148 146 154
228 230 240 224 197 174 208 227 260 322 180 244 264 226 181 252 166 151 127 219 230 284 112 260 163 166 161 192 232 220 222 212 129 112 105 105 160 152 133 129 135 140 133 118
222 228 234 224 162 205 269 223 270 279 218 213 236 147 163 193 195 154 41 164 202 340 82 40 241 106 189 250 251 277 326 139 123 134 146 56 115 120 123 123 117 135 131 155
213 221 179 120 194 196 188 177 186 292 281 189 198 166 185 156 166 106 174 264 154 70 216 167 118 195 224 222 226 236 163 160 155 135 125 147 129 137 135 137 143 162 177 178
201 150 182 200 217 120 111 42 143 195 237 215 223 138 149 178 164 162 114 269 155 157 196 109 196 255 239 225 221 103 136 144 138 135 160 156 148 144 147 161 160 175 115 86
166 144 174 88 137 82 123 224 185 176 232 199 195 154 139 246 175 139 181 181 155 182 151 169 225 254 220 104 55 134 133 139 141 151 146 162 138 144 151 158 123 99 99 93
155 128 104 113 205 150 181 203 213 187 219 184 161 140 116 173 226 111 238 139 60 192 141 159 249 237 120 124 128 128 127 136 122 121 133 114 129 135 127 125 115 111 90 69
82 98 128 190 193 196 201 192 203 191 124 161 140 124 130 141 245 100 122 134 174 110 172 225 228 142 135 147 127 137 127 114 115 104 103 101 88 88 99 99 101 101 101 87
163 166 199 221 178 223 194 221 175 125 136 154 149 120 138 133 141 148 124 92 120 158 228 232 199 165 145 146 143 140 139 129 127 125 119 119 123 112 98 108 103 99 86 82
188 182 215 208 226 220 216 231 167 149 155 161 125 82 104 117 109 161 101 100 202 211 221 220 137 143 145 151 151 146 141 137 136 129 129 130 118 130 123 103 101 106 105 92
208 221 221 235 200 239 236 219 139 152 155 145 103 131 132 184 146 143 203 155 212 216 207 138 134 141 146 152 152 142 141 136 126 121 118 111 113 110 103 109 111 100 94 110
208 219 235 267 207 206 219 164 152 163 160 169 136 137 189 106 156 206 184 206 202 144 126 136 141 147 150 144 138 133 128 126 121 116 119 106 102 106 110 98 99 99 112 121